Regional Weather Roundup
Issued by NWS Portland, ME

Home | Current Version | Previous Version | Text Only | Print | Product List | Glossary On
Versions: 1 2 3 4 5 6 7 8 9 10 11 12 13 14 15 16 17 18 19 20 21 22 23 24 25 26 27 28 29 30 31 32 33 34 35 36 37 38 39 40 41 42 43 44 45 46 47 48 49 50
000
ASUS41 KGYX 230110
RWRGYX
WEATHER ROUNDUP FOR MAINE AND NEW HAMPSHIRE
NATIONAL WEATHER SERVICE GRAY ME
900 PM EDT TUE JUL 22 2014

MEZ002-005-006-010-012-015-018-020-021-024-026-027-029-230200-
MAINE

CITY           SKY/WX    TMP DP  RH WIND       PRES   REMARKS
PORTLAND       CLEAR     74  65  73 S5        29.97F
SANFORD        CLEAR     73  64  73 S3        29.98S
BAR HARBOR     CLEAR     64  63  94 S10       29.99S
WISCASSET      PTCLDY    72  65  78 CALM      30.00S
ROCKLAND       CLEAR     66  64  94 SW3       29.98S
FRYEBURG       PTCLDY    75  68  78 CALM      29.98S
LEWISTONAUBURN PTCLDY    72  64  78 S6        29.97S
AUGUSTA        PTCLDY    71  64  78 S7        29.98S
WATERVILLE     PTCLDY    72  64  78 S6        29.93S
BANGOR         PTCLDY    70  63  78 S9        29.97R
GREENVILLE       N/A     73  64  73 S3        29.97S
MILLINOCKET    CLEAR     77  66  68 VRB3      29.94R
HOULTON        CLEAR     75  65  70 SW5       29.92R
PRESQUE ISLE   PTCLDY    77  61  57 SW5       29.90S
FRENCHVILLE    CLEAR     74  61  63 S8        29.88F
CARIBOU        CLEAR     75  63  66 SW6       29.88S
$$

NHZ002-005-008-009-011-012-014-230200-
NEW HAMPSHIRE

CITY           SKY/WX    TMP DP  RH WIND       PRES   REMARKS
PORTSMOUTH     CLEAR     74  68  81 S6        29.97S
ROCHESTER      PTCLDY    76  68  76 CALM      29.98S
NASHUA         CLEAR     82  66  58 VRB3      30.00S
MANCHESTER     CLEAR     82  66  58 S6        29.97S
CONCORD        CLEAR     77  67  71 CALM      29.99R
LACONIA        CLEAR     79  66  65 W3        29.98R
PLYMOUTH       FAIR      72  68  88 CALM      29.99R
BERLIN         MOCLDY    69  66  90 CALM      30.00S
WHITEFIELD     MOCLDY    73  64  73 CALM      30.01R
JAFFREY        CLEAR     77  66  68 SW3       30.05S
LEBANON        CLEAR     73  67  81 S3        29.99R
MT WASHINGTON  MOCLDY    55  52  88 W36         N/A
$$

VTZ005-007-008-230200-
VERMONT

CITY           SKY/WX    TMP DP  RH WIND       PRES   REMARKS
ST JOHNSBURY     N/A     73  67  81 MISG      29.96S
MONTPELIER     PTCLDY    74  65  73 S5        30.04R
BURLINGTON     MOCLDY    81  68  64 S5        29.95S
$$

MAZ007-012-024-CTZ003-RIZ002-NYZ038-NYZ072-230200-
SOUTHERN NEW ENGLAND AND NY

CITY           SKY/WX    TMP DP  RH WIND       PRES   REMARKS
BOSTON         PTCLDY    81  66  60 SW15      30.01R
WORCESTER      CLEAR     76  66  71 SW15      30.06S
NANTUCKET      CLEAR     67  64  90 SW8       30.08R
PROVIDENCE     PTCLDY    75  66  73 SW9       30.06R
HARTFORD       PTCLDY    81  68  64 S10       30.02S
ALBANY         PTCLDY    82  70  66 S7        29.99S
NEW YORK CITY  PTCLDY    79  66  64 S10       30.06S
$$

ANZ081-ANZ082-ANZ150-NHZ014-MEZ023>029-230200-
COASTAL MARINE OBSERVATIONS

STATION/POSITION TIME  TEMP    WIND        PRES    WAVE
                       AIR SEA DIR/SP/G            HT/PER
                 (UTC) (F)     (DEG/KT/KT) (MB)    (FT/S)
MOUNT DESERT ROC 0100   60                 1015.8S
MATINICUS ROCK   0000          190/ 16/ 17 1015.2F
PORTLAND WX BUOY 0100   67 64  200/  8/ 10 1014.8F   3/ 7
WELLS            0100   68 59  180/  4/  5 1014.2F
ISLE OF SHOALS   0000   72     180/ 17/ 18 1014.8F
JEFFREYS LEDGE   0000      67                N/A     3/ 7
CASHES LEDGE BUO 0100   67 66  VRB 14/ 16  1015.1S   3/ 4
$$

.............KEY..............
   WCI - WIND CHILL
   TC  - TEMPERATURE IN CELSIUS
   VSB - VISIBILITY IN MILES
   HX  - HEAT INDEX
   FAIR- INDICATES FEW OR NO CLOUDS BELOW 12,000 FT, WITH NO
         SIGNIFICANT WEATHER AND/OR OBSTRUCTIONS TO VISIBILITY.





USA.gov is the U.S. government's official web portal to all federal, state and local government web resources and services.